Akron, CO

8:28 AM MDT on September 27, 2016 (GMT -0600)
Akron-Washington County

Weather History for KAKO - May, 2013

Change the Weather History Date:

Thursday, May 23, 2013

  Actual Average Record
Temperature  
Mean Temperature 53 °F 59 °F  
Max Temperature 62 °F 73 °F 94 °F (1989)
Min Temperature 44 °F 46 °F 35 °F (1971)
Degree Days  
Heating Degree Days 12    
Month to date heating degree days 243  
Cooling Degree Days 0    
Month to date cooling degree days 26  
Growing Degree Days 3 (Base 50)    
Moisture  
Dew Point 46 °F    
Average Humidity 80    
Maximum Humidity 100    
Minimum Humidity 60    
Precipitation  
Precipitation 0.02 in 0.11 in 1.82 in (1965)
Month to date precipitation 1.42 2.09  
Year to date precipitation 3.87 5.35  
Sea Level Pressure  
Sea Level Pressure 30.10 in    
Wind  
Wind Speed 13 mph (ESE)    
Max Wind Speed 31 mph    
Max Gust Speed 39 mph    
Visibility 6 miles    
Events Fog , Rain    
T = Trace of Precipitation, MM = Missing Value Source: NWS Daily Summary

Daily Weather History Graph

Daily Weather History Graph

Search for Another Location

Airport or City:

Trip Planner

Search our weather history database for the weather conditions in past years. The results will help you decide how hot, cold, wet, or windy it might be!

Date:

Astronomy

May. 23, 2013 Rise Set
Actual Time 5:30 AM MDT 8:09 PM MDT
Civil Twilight 4:58 AM MDT 8:40 PM MDT
Nautical Twilight 4:19 AM MDT 9:20 PM MDT
Astronomical Twilight 3:35 AM MDT 10:05 PM MDT
Moon 6:44 PM MDT (5/23) 4:17 AM MDT (5/23)
Length of Visible Light 15h 42m
Length of Day
14h 38m
Waxing Gibbous, 97% of the Moon is Illuminated
May 23
Waxing Gibbous
May 24
Full
May 31
Last Quarter
Jun 8
New
Jun 16
First Quarter

Hourly Weather History & Observations

Time (MDT) Temp. Windchill Dew Point Humidity Pressure Visibility Wind Dir Wind Speed Gust Speed Precip Events Conditions
12:01 AM 48.2 °F - 44.6 °F 87% 30.15 in 10.0 mi ENE 4.6 mph - N/A   Mostly Cloudy
12:53 AM 46.9 °F - 45.0 °F 93% 30.04 in 10.0 mi East 11.5 mph - 0.00 in   Overcast
1:53 AM 46.9 °F - 45.0 °F 93% 30.05 in 10.0 mi East 13.8 mph - 0.00 in Rain Light Rain
2:30 AM 46.4 °F 40.1 °F 44.6 °F 93% 30.14 in 10.0 mi ESE 15.0 mph - 0.01 in   Overcast
2:53 AM 46.0 °F 40.2 °F 45.0 °F 96% 30.04 in 10.0 mi ESE 12.7 mph 21.9 mph 0.01 in   Overcast
3:53 AM 46.0 °F 39.3 °F 44.1 °F 93% 30.03 in 6.0 mi ESE 16.1 mph 25.3 mph N/A   Overcast
4:07 AM 44.6 °F 37.2 °F 44.6 °F 100% 30.12 in 1.8 mi ESE 17.3 mph - N/A   Overcast
4:11 AM 44.6 °F 36.6 °F 44.6 °F 100% 30.11 in 1.0 mi ESE 19.6 mph 24.2 mph N/A   Overcast
4:18 AM 44.6 °F 37.4 °F 44.6 °F 100% 30.11 in 0.2 mi East 16.1 mph - N/A Fog Fog
4:53 AM 45.0 °F 38.5 °F 44.1 °F 97% 30.02 in 1.0 mi East 13.8 mph - N/A   Mist
5:00 AM 44.6 °F 37.8 °F 44.6 °F 100% 30.12 in 0.8 mi East 15.0 mph - N/A   Mist
5:17 AM 44.6 °F 38.8 °F 44.6 °F 100% 30.15 in 1.2 mi East 11.5 mph - N/A   Overcast
5:23 AM 44.6 °F 40.7 °F 44.6 °F 100% 30.16 in 2.0 mi ESE 6.9 mph - N/A   Overcast
5:34 AM 44.6 °F 40.2 °F 44.6 °F 100% 30.16 in 1.2 mi East 8.1 mph - N/A   Overcast
5:36 AM 44.6 °F 40.2 °F 44.6 °F 100% 30.16 in 0.8 mi East 8.1 mph - N/A   Overcast
5:53 AM 45.0 °F 40.1 °F 44.1 °F 97% 30.07 in 0.2 mi East 9.2 mph - N/A Fog Fog
6:53 AM 44.1 °F 38.6 °F 44.1 °F 100% 30.09 in 0.5 mi East 10.4 mph - N/A Fog Fog
7:14 AM 44.6 °F 39.7 °F 44.6 °F 100% 30.17 in 1.2 mi ESE 9.2 mph - 0.01 in   Overcast
7:25 AM 44.6 °F 39.7 °F 44.6 °F 100% 30.17 in 1.5 mi ESE 9.2 mph - 0.01 in   Overcast
7:31 AM 44.6 °F 40.2 °F 44.6 °F 100% 30.17 in 1.0 mi ESE 8.1 mph - 0.01 in   Overcast
7:42 AM 44.6 °F 39.7 °F 44.6 °F 100% 30.17 in 1.2 mi East 9.2 mph - 0.01 in   Overcast
7:50 AM 44.6 °F 39.7 °F 44.6 °F 100% 30.17 in 1.0 mi East 9.2 mph - 0.01 in   Overcast
7:53 AM 45.0 °F 40.1 °F 44.1 °F 97% 30.11 in 1.0 mi East 9.2 mph - 0.01 in   Overcast
8:01 AM 44.6 °F 40.7 °F 44.6 °F 100% 30.17 in 1.5 mi East 6.9 mph - N/A   Overcast
8:24 AM 46.4 °F 41.9 °F 44.6 °F 93% 30.18 in 2.0 mi East 9.2 mph - N/A   Overcast
8:41 AM 46.4 °F 41.5 °F 44.6 °F 93% 30.17 in 1.8 mi East 10.4 mph - N/A   Overcast
8:49 AM 46.4 °F 41.5 °F 44.6 °F 93% 30.18 in 2.0 mi East 10.4 mph - N/A   Overcast
8:53 AM 46.0 °F 40.6 °F 45.0 °F 96% 30.12 in 2.0 mi East 11.5 mph - N/A   Overcast
9:28 AM 46.4 °F 41.5 °F 46.4 °F 100% 30.17 in 4.0 mi ESE 10.4 mph - N/A   Overcast
9:53 AM 46.9 °F - 46.0 °F 97% 30.13 in 4.0 mi ESE 12.7 mph - N/A   Overcast
10:22 AM 48.2 °F - 46.4 °F 93% 30.17 in 10.0 mi ESE 13.8 mph - N/A   Overcast
10:53 AM 48.9 °F - 46.9 °F 93% 30.12 in 10.0 mi ESE 11.5 mph - N/A   Overcast
11:53 AM 52.0 °F - 46.9 °F 83% 30.11 in 10.0 mi SE 15.0 mph 21.9 mph N/A   Overcast
12:46 PM 53.6 °F - 46.4 °F 77% 30.14 in 10.0 mi SE 20.7 mph 26.5 mph N/A   Overcast
12:53 PM 53.1 °F - 46.9 °F 80% 30.08 in 10.0 mi SE 19.6 mph 26.5 mph N/A   Overcast
1:53 PM 54.0 °F - 48.0 °F 80% 30.07 in 10.0 mi SE 16.1 mph 25.3 mph N/A   Overcast
2:49 PM 57.2 °F - 48.2 °F 72% 30.10 in 10.0 mi SE 19.6 mph - N/A   Overcast
2:53 PM 55.9 °F - 48.9 °F 77% 30.05 in 10.0 mi ESE 21.9 mph 27.6 mph N/A   Overcast
3:53 PM 57.9 °F - 48.9 °F 72% 30.02 in 10.0 mi ESE 25.3 mph 31.1 mph N/A   Overcast
4:44 PM 60.8 °F - 48.2 °F 63% 30.07 in 10.0 mi SE 26.5 mph 36.8 mph N/A   Overcast
4:53 PM 61.0 °F - 48.0 °F 62% 30.01 in 10.0 mi SE 28.8 mph 35.7 mph N/A   Overcast
5:53 PM 62.1 °F - 48.0 °F 60% 29.99 in 10.0 mi SE 26.5 mph 34.5 mph N/A   Overcast
6:53 PM 61.0 °F - 48.0 °F 62% 29.99 in 10.0 mi SSE 24.2 mph 39.1 mph N/A   Overcast
7:53 PM 60.1 °F - 48.9 °F 67% 30.00 in 10.0 mi SE 26.5 mph 32.2 mph N/A   Overcast
8:06 PM 60.8 °F - 48.2 °F 63% 30.07 in 10.0 mi SSE 23.0 mph 33.4 mph N/A   Overcast
8:53 PM 57.9 °F - 48.9 °F 72% 30.01 in 10.0 mi SSE 19.6 mph - N/A   Overcast
9:53 PM 57.9 °F - 48.9 °F 72% 30.04 in 10.0 mi SSE 26.5 mph 35.7 mph N/A   Overcast
10:46 PM 55.4 °F - 51.8 °F 88% 30.10 in 9.0 mi SSE 21.9 mph - 0.00 in Rain Light Rain
10:53 PM 55.0 °F - 52.0 °F 89% 30.04 in 8.0 mi SSE 20.7 mph 28.8 mph 0.00 in   Overcast
11:29 PM 55.4 °F - 51.8 °F 88% 30.09 in 9.0 mi SSE 18.4 mph 26.5 mph 0.00 in   Overcast
11:53 PM 55.9 °F - 52.0 °F 87% 30.01 in 8.0 mi SSE 21.9 mph 27.6 mph 0.00 in   Overcast